Location: Bemmer
(51.5498°N, 5.6249°E)
Time: 14:06:52
(UTC+00:00)

Cosmos 1302 Rocket - Pass Details

Date: 03 March 2021
Orbit: 756 x 777 km, 74.0° (Epoch: 11 April)

Event Time Altitude Azimuth Distance (km) Brightness Sun altitude
Rises 18:08:55 0° 204° (SSW) 3,201 7.6 -8.1°
Reaches altitude 10° 18:11:16 10° 205° (SSW) 2,281 6.8 -8.5°
Maximum altitude 18:16:27 86° 295° (WNW) 768 4.1 -9.3°
Drops below altitude 10° 18:21:41 10° 24° (NNE) 2,306 6.3 -10.1°
Sets 18:24:05 0° 25° (NNE) 3,239 7.0 -10.5°
